Latest Coastal Weather Observations for Gannett Cay

IDQ60701

Issued at 10:25 am EST Friday 28 November 2014 (issued every 10 minutes, with the page automatically refreshed every 10 minutes)

About coastal observations | Map of coastal stations | Coastal observations for QLD | Marine services | Other Formats
Station Details ID: 200831 Name: GANNET CAY Lat: -21.98 Lon: 152.47 Height: 2.3 m
Data from the previous 72 hours. | See also: Recent months for locations in Queensland
Date/Time
EST
Temp

°C
Wind Pressure Rain
since 9am
mm
Weather Cloud Vis
km
Sea
Height
m
Swell
Dir
 
Speed
knots
Gust
knots
hPa Trend Height
m
Period
s
Dir
28/10:00am 25.9 SE 18 19 1014.2 - - - - - - - - -
28/09:30am 26.0 SE 16 19 1014.3 - - - - - - - - -
28/09:29am 26.0 SE 16 - 1014.4 - - - - - - - - -
28/09:00am 25.8 SE 16 18 1014.3 - - - - - - - - -
28/08:30am 25.8 SE 15 17 1014.2 - - - - - - - - -
28/08:29am 25.8 SE 15 - 1014.3 - - - - - - - - -
28/08:00am 25.9 SE 14 16 1014.0 - - - - - - - - -
28/07:30am 25.6 ESE 15 17 1013.8 - - - - - - - - -
28/07:29am 25.6 ESE 15 - 1013.9 - - - - - - - - -
28/07:00am 25.6 ESE 14 16 1013.4 - - - - - - - - -
28/06:30am 25.6 ESE 15 17 1013.3 - - - - - - - - -
28/06:29am 25.6 ESE 15 - 1013.4 - - - - - - - - -
28/06:00am 25.3 ESE 16 19 1013.4 - - - - - - - - -
28/05:30am 25.0 ESE 17 19 1013.2 - - - - - - - - -
28/05:29am 25.1 ESE 17 - 1013.2 - - - - - - - - -
28/05:00am 25.0 ESE 17 20 1012.6 - - - - - - - - -
28/04:30am 25.0 ESE 16 18 1012.4 - - - - - - - - -
28/04:29am 25.0 ESE 16 - 1012.5 - - - - - - - - -
28/04:00am 24.9 ESE 16 19 1012.2 - - - - - - - - -
28/03:30am 25.0 ESE 16 19 1012.1 - - - - - - - - -
28/03:29am 25.0 ESE 16 - 1012.2 - - - - - - - - -
28/03:00am 25.1 ESE 17 19 1012.1 - - - - - - - - -
28/02:30am 25.0 ESE 16 19 1012.1 - - - - - - - - -
28/02:29am 25.0 ESE 16 - 1012.3 - - - - - - - - -
28/02:00am 25.1 ESE 17 20 1012.1 - - - - - - - - -
28/01:30am 25.0 E 18 20 1011.9 - - - - - - - - -
28/01:29am 25.2 E 18 - 1012.0 - - - - - - - - -
28/01:00am 25.2 E 19 21 1012.3 - - - - - - - - -
28/12:30am 25.2 ESE 18 20 1012.5 - - - - - - - - -
28/12:29am 25.2 E 18 - 1012.6 - - - - - - - - -
28/12:00am 25.4 ESE 18 21 1012.8 - - - - - - - - -
 
Date/Time
EST
Temp

°C
Wind Pressure Rain
since 9am
mm
Weather Cloud Vis
km
Sea
Height
m
Swell
Dir
 
Speed
knots
Gust
knots
hPa Trend Height
m
Period
s
Dir
27/11:30pm 25.4 ESE 18 21 1012.9 - - - - - - - - -
27/11:29pm 25.3 ESE 18 - 1013.0 - - - - - - - - -
27/11:00pm 25.4 ESE 17 19 1013.2 - - - - - - - - -
27/10:30pm 25.3 ESE 17 19 1013.4 - - - - - - - - -
27/10:29pm 25.2 ESE 16 - 1013.5 - - - - - - - - -
27/10:00pm 25.4 ESE 16 18 1013.6 - - - - - - - - -
27/09:30pm 25.3 ESE 16 18 1013.9 - - - - - - - - -
27/09:29pm 25.3 ESE 16 - 1014.0 - - - - - - - - -
27/09:00pm 25.3 SE 18 21 1013.6 - - - - - - - - -
27/08:30pm 25.4 SE 17 19 1013.5 - - - - - - - - -
27/08:29pm 25.3 SE 17 - 1013.7 - - - - - - - - -
27/08:00pm 25.4 SE 16 18 1013.4 - - - - - - - - -
27/07:30pm 25.4 SE 16 19 1013.3 - - - - - - - - -
27/07:29pm 25.4 SE 16 - 1013.4 - - - - - - - - -
27/07:00pm 25.4 SE 15 17 1013.2 - - - - - - - - -
27/06:30pm 25.5 SE 15 17 1013.0 - - - - - - - - -
27/06:29pm 25.6 SE 15 - 1013.1 - - - - - - - - -
27/06:00pm 25.7 SE 14 17 1013.0 - - - - - - - - -
27/05:30pm 26.1 SE 15 17 1012.8 - - - - - - - - -
27/05:29pm 26.0 SE 15 - 1012.9 - - - - - - - - -
27/05:00pm 25.7 SE 14 16 1012.4 - - - - - - - - -
27/04:30pm 25.7 SE 13 15 1012.1 - - - - - - - - -
27/04:29pm 25.8 SE 14 - 1012.2 - - - - - - - - -
27/04:00pm 25.9 SE 14 16 1011.9 - - - - - - - - -
27/03:30pm 25.9 SE 13 15 1011.8 - - - - - - - - -
27/03:29pm 25.9 SE 13 - 1011.9 - - - - - - - - -
27/03:00pm 26.2 SE 14 15 1012.0 - - - - - - - - -
27/02:30pm 26.3 SE 13 16 1012.1 - - - - - - - - -
27/02:29pm 26.3 SE 13 - 1012.2 - - - - - - - - -
27/02:00pm 26.2 ESE 13 14 1012.2 - - - - - - - - -
27/01:30pm 26.3 ESE 11 13 1012.6 - - - - - - - - -
27/01:29pm 26.3 ESE 11 - 1012.6 - - - - - - - - -
27/01:00pm 26.1 ESE 11 12 1012.6 - - - - - - - - -
27/12:30pm 26.4 ESE 9 11 1012.9 - - - - - - - - -
27/12:29pm 26.2 ESE 10 - 1013.1 - - - - - - - - -
27/12:00pm 26.3 ESE 9 10 1013.2 - - - - - - - - -
27/11:30am 25.9 E 9 10 1013.6 - - - - - - - - -
27/11:29am 26.0 E 9 - 1013.7 - - - - - - - - -
27/11:00am 26.0 E 9 11 1013.8 - - - - - - - - -
27/10:30am 26.0 E 9 11 1014.0 - - - - - - - - -
27/10:29am 26.0 E 9 - 1014.1 - - - - - - - - -
27/10:00am 25.9 E 11 13 1014.3 - - - - - - - - -
27/09:30am 25.8 E 12 13 1014.4 - - - - - - - - -
27/09:29am 25.9 E 12 - 1014.4 - - - - - - - - -
27/09:00am 25.7 E 12 14 1014.2 - - - - - - - - -
27/08:30am 25.9 E 13 15 1014.2 - - - - - - - - -
27/08:29am 25.8 E 13 - 1014.3 - - - - - - - - -
27/08:00am 25.8 E 13 15 1014.1 - - - - - - - - -
27/07:30am 25.7 E 14 17 1013.9 - - - - - - - - -
27/07:29am 25.6 E 15 - 1014.0 - - - - - - - - -
27/07:00am 25.5 E 16 18 1013.9 - - - - - - - - -
27/06:30am 25.5 E 16 19 1013.6 - - - - - - - - -
27/06:29am 25.5 E 16 - 1013.7 - - - - - - - - -
27/06:00am 25.4 ENE 15 18 1013.6 - - - - - - - - -
27/05:30am 25.1 ENE 17 19 1013.5 - - - - - - - - -
27/05:29am 25.1 ENE 17 - 1013.6 - - - - - - - - -
27/05:00am 25.2 E 16 19 1013.4 - - - - - - - - -
27/04:30am 25.1 E 18 19 1013.2 - - - - - - - - -
27/04:29am 25.1 E 17 - 1013.3 - - - - - - - - -
27/04:00am 25.0 E 16 19 1013.0 - - - - - - - - -
27/03:30am 25.2 E 16 19 1012.9 - - - - - - - - -
27/03:29am 25.3 E 16 - 1012.9 - - - - - - - - -
27/03:00am 25.3 E 18 21 1012.6 - - - - - - - - -
27/02:30am 25.3 E 17 19 1012.7 - - - - - - - - -
27/02:29am 25.3 E 17 - 1012.8 - - - - - - - - -
27/02:00am 25.3 E 17 20 1012.9 - - - - - - - - -
27/01:30am 25.4 E 18 20 1013.2 - - - - - - - - -
27/01:29am 25.3 E 18 - 1013.3 - - - - - - - - -
27/01:00am 25.3 E 17 19 1013.3 - - - - - - - - -
27/12:30am 25.4 E 17 19 1013.4 - - - - - - - - -
27/12:29am 25.4 E 17 - 1013.5 - - - - - - - - -
27/12:00am 25.5 E 15 18 1014.0 - - - - - - - - -
 
Date/Time
EST
Temp

°C
Wind Pressure Rain
since 9am
mm
Weather Cloud Vis
km
Sea
Height
m
Swell
Dir
 
Speed
knots
Gust
knots
hPa Trend Height
m
Period
s
Dir
26/11:30pm 25.4 E 17 19 1014.1 - - - - - - - - -
26/11:29pm 25.5 E 17 - 1014.2 - - - - - - - - -
26/11:00pm 25.6 E 18 21 1014.2 - - - - - - - - -
26/10:30pm 25.6 E 18 20 1014.4 - - - - - - - - -
26/10:29pm 25.5 E 18 - 1014.5 - - - - - - - - -
26/10:00pm 25.6 E 18 21 1014.5 - - - - - - - - -
26/09:30pm 25.6 E 17 21 1014.3 - - - - - - - - -
26/09:29pm 25.6 E 17 - 1014.4 - - - - - - - - -
26/09:00pm 25.6 E 16 18 1014.3 - - - - - - - - -
26/08:30pm 25.7 E 15 18 1014.4 - - - - - - - - -
26/08:29pm 25.7 E 15 - 1014.5 - - - - - - - - -
26/08:00pm 25.6 ESE 13 15 1014.3 - - - - - - - - -
26/07:30pm 25.6 SE 12 14 1014.2 - - - - - - - - -
26/07:29pm 25.6 SE 12 - 1014.3 - - - - - - - - -
26/07:00pm 25.6 ESE 11 13 1014.0 - - - - - - - - -
26/06:30pm 25.7 ESE 10 12 1013.9 - - - - - - - - -
26/06:29pm 25.6 ESE 10 - 1014.0 - - - - - - - - -
26/06:00pm 25.8 ESE 10 12 1013.7 - - - - - - - - -
26/05:30pm 25.9 ESE 12 14 1013.4 - - - - - - - - -
26/05:29pm 25.9 ESE 12 - 1013.5 - - - - - - - - -
26/05:00pm 26.3 ESE 12 13 1013.0 - - - - - - - - -
26/04:30pm 26.1 ESE 13 15 1012.8 - - - - - - - - -
26/04:29pm 26.1 ESE 13 - 1012.9 - - - - - - - - -
26/04:00pm 26.3 ESE 13 15 1012.6 - - - - - - - - -
26/03:30pm 26.0 E 13 15 1012.4 - - - - - - - - -
26/03:29pm 26.0 E 13 - 1012.5 - - - - - - - - -
26/03:00pm 25.9 E 12 14 1012.6 - - - - - - - - -
26/02:30pm 25.8 E 13 15 1012.8 - - - - - - - - -
26/02:29pm 25.8 E 13 - 1012.9 - - - - - - - - -
26/02:00pm 25.9 E 12 14 1012.9 - - - - - - - - -
26/01:30pm 25.8 E 12 14 1013.0 - - - - - - - - -
26/01:29pm 25.8 E 12 - 1013.1 - - - - - - - - -
26/01:00pm 25.6 E 12 14 1013.2 - - - - - - - - -
26/12:30pm 25.8 E 12 13 1013.6 - - - - - - - - -
26/12:29pm 25.7 E 12 - 1013.8 - - - - - - - - -
26/12:00pm 25.7 E 13 15 1013.9 - - - - - - - - -
26/11:30am 25.7 E 15 17 1013.9 - - - - - - - - -
26/11:29am 25.6 E 15 - 1014.0 - - - - - - - - -
26/11:00am 25.6 E 15 17 1014.3 - - - - - - - - -
26/10:30am 25.6 E 16 18 1014.5 - - - - - - - - -
26/10:29am 25.5 E 16 - 1014.6 - - - - - - - - -
26/10:00am 25.6 E 15 16 1015.0 - - - - - - - - -
26/09:30am 25.6 E 15 17 1015.1 - - - - - - - - -
26/09:29am 25.6 E 15 - 1015.2 - - - - - - - - -
26/09:00am 25.5 E 14 17 1015.0 - - - - - - - - -
26/08:30am 25.5 E 17 20 1014.8 - - - - - - - - -
26/08:29am 25.6 E 17 - 1014.9 - - - - - - - - -
26/08:00am 25.6 E 18 21 1014.6 - - - - - - - - -
26/07:30am 25.4 E 19 21 1014.5 - - - - - - - - -
26/07:29am 25.4 E 18 - 1014.6 - - - - - - - - -
26/07:00am 25.5 E 18 20 1014.4 - - - - - - - - -
26/06:30am 25.5 E 19 22 1014.0 - - - - - - - - -
26/06:29am 25.4 E 19 - 1014.1 - - - - - - - - -
26/06:00am 25.2 E 18 20 1013.9 - - - - - - - - -
26/05:30am 25.0 E 15 16 1013.6 - - - - - - - - -
26/05:29am 25.0 E 15 - 1013.7 - - - - - - - - -
26/05:00am 25.0 E 16 19 1013.3 - - - - - - - - -
26/04:30am 25.0 E 17 20 1013.0 - - - - - - - - -
26/04:29am 24.9 E 17 - 1013.1 - - - - - - - - -
26/04:00am 24.9 E 17 19 1012.7 - - - - - - - - -
26/03:30am 24.8 ENE 17 20 1012.2 - - - - - - - - -
26/03:29am 24.9 ENE 17 - 1012.3 - - - - - - - - -
26/03:00am 24.9 ENE 16 19 1012.1 - - - - - - - - -
26/02:30am 24.9 ENE 15 17 1012.3 - - - - - - - - -
26/02:29am 24.9 ENE 15 - 1012.4 - - - - - - - - -
26/02:00am 25.0 ENE 13 16 1012.6 - - - - - - - - -
26/01:30am 25.0 ENE 15 16 1012.5 - - - - - - - - -
26/01:29am 24.9 ENE 15 - 1012.6 - - - - - - - - -
26/01:00am 25.1 ENE 13 15 1012.9 - - - - - - - - -
26/12:30am 25.1 E 12 14 1013.3 - - - - - - - - -
26/12:29am 25.1 E 12 - 1013.5 - - - - - - - - -
26/12:00am 25.1 E 11 13 1013.7 - - - - - - - - -
 
Date/Time
EST
Temp

°C
Wind Pressure Rain
since 9am
mm
Weather Cloud Vis
km
Sea
Height
m
Swell
Dir
 
Speed
knots
Gust
knots
hPa Trend Height
m
Period
s
Dir
25/11:30pm 25.1 E 12 13 1014.2 - - - - - - - - -
25/11:29pm 25.1 E 12 - 1014.3 - - - - - - - - -
25/11:00pm 25.2 ENE 13 15 1014.3 - - - - - - - - -
25/10:30pm 25.2 ENE 13 14 1014.4 - - - - - - - - -
25/10:29pm 25.2 ENE 13 - 1014.5 - - - - - - - - -
25/10:00pm 25.3 ENE 12 14 1014.5 - - - - - - - - -
25/09:30pm 25.4 ENE 13 14 1014.5 - - - - - - - - -
25/09:29pm 25.4 ENE 13 - 1014.6 - - - - - - - - -
25/09:00pm 25.4 ENE 13 14 1014.3 - - - - - - - - -
25/08:30pm 25.5 ENE 12 14 1014.1 - - - - - - - - -
25/08:29pm 25.5 ENE 12 - 1014.2 - - - - - - - - -
25/08:00pm 25.5 E 13 14 1013.9 - - - - - - - - -
25/07:30pm 25.6 E 12 13 1013.6 - - - - - - - - -
25/07:29pm 25.7 E 12 - 1013.7 - - - - - - - - -
25/07:00pm 25.6 E 12 13 1013.4 - - - - - - - - -
25/06:30pm 25.6 E 13 14 1013.1 - - - - - - - - -
25/06:29pm 25.6 E 13 - 1013.2 - - - - - - - - -
25/06:00pm 25.7 ENE 14 16 1012.7 - - - - - - - - -
25/05:30pm 25.7 ENE 16 18 1012.2 - - - - - - - - -
25/05:29pm 25.8 ENE 16 - 1012.3 - - - - - - - - -
25/05:00pm 25.9 ENE 17 19 1012.1 - - - - - - - - -
25/04:30pm 25.9 ENE 16 19 1011.9 - - - - - - - - -
25/04:29pm 25.9 ENE 16 - 1012.0 - - - - - - - - -
25/04:00pm 25.9 ENE 18 20 1011.8 - - - - - - - - -
25/03:30pm 25.9 ENE 17 20 1011.9 - - - - - - - - -
25/03:29pm 26.0 ENE 17 - 1012.0 - - - - - - - - -
25/03:00pm 26.0 ENE 15 18 1012.1 - - - - - - - - -
25/02:30pm 25.2 NE 12 15 1012.3 - - - - - - - - -
25/02:29pm 25.1 NE 13 - 1012.4 - - - - - - - - -
25/02:00pm 25.0 NNE 18 20 1012.5 - - - - - - - - -
25/01:30pm 26.1 ENE 15 17 1012.7 - - - - - - - - -
25/01:29pm 26.1 ENE 15 - 1012.8 - - - - - - - - -
25/01:00pm 26.0 ENE 14 16 1013.0 - - - - - - - - -
25/12:30pm 25.7 E 12 15 1013.3 - - - - - - - - -
25/12:29pm 25.6 E 12 - 1013.4 - - - - - - - - -
25/12:00pm 25.3 NE 11 13 1013.6 - - - - - - - - -
25/11:30am 25.2 NE 12 16 1013.8 - - - - - - - - -
25/11:29am 25.4 NE 11 - 1014.0 - - - - - - - - -
25/11:00am 25.9 ENE 12 14 1014.2 - - - - - - - - -
25/10:30am 25.6 ENE 16 18 1014.3 - - - - - - - - -
25/10:29am 25.6 ENE 16 - 1014.4 - - - - - - - - -

Other Formats:

Comma delimited format used in spreadsheet applications
http://www.bom.gov.au/fwo/IDQ60701/IDQ60701.94379.axf

JavaScript Object Notation format (JSON) in row-major order
http://www.bom.gov.au/fwo/IDQ60701/IDQ60701.94379.json